Ash Shahaniyah, Qatar

3:17 AM AST on January 25, 2017 (GMT +0300)
Ash Shahaniyah

Weather History for WKQIR - April, 2013

Change the Weather History Date:

Saturday, April 13, 2013

  Actual Average Record
Temperature  
Mean Temperature 88 °F -  
Max Temperature 103 °F - - ()
Min Temperature 73 °F - - ()
Cooling Degree Days 23    
Growing Degree Days 38 (Base 50)    
Moisture  
Dew Point 54 °F    
Average Humidity 42    
Maximum Humidity 84    
Minimum Humidity 8    
Precipitation  
Precipitation 0.00 in - - ()
Sea Level Pressure  
Sea Level Pressure 29.83 in    
Wind  
Wind Speed 11 mph ()    
Max Wind Speed 24 mph    
Max Gust Speed 31 mph    
Visibility 6.0 miles    
Events      
T = Trace of Precipitation, MM = Missing Value Source: Averaged Metar Reports

Daily Weather History Graph

Daily Weather History Graph

Search for Another Location

Airport or City:

Trip Planner

Search our weather history database for the weather conditions in past years. The results will help you decide how hot, cold, wet, or windy it might be!

Date:

Astronomy

Apr. 13, 2013 Rise Set
Actual Time 5:14 AM AST 5:56 PM AST
Civil Twilight 4:51 AM AST 6:20 PM AST
Nautical Twilight 4:23 AM AST 6:47 PM AST
Astronomical Twilight 3:55 AM AST 7:15 PM AST
Moon 7:04 AM AST (4/13) 8:43 PM AST (4/13)
Length of Visible Light 13h 29m
Length of Day
12h 42m
Waxing Crescent, 8% of the Moon is Illuminated
Apr 13
Waxing Crescent
Apr 18
First Quarter
Apr 25
Full
May 2
Last Quarter
May 10
New

Hourly Weather History & Observations

Time (AST) Temp. Heat Index Dew Point Humidity Pressure Visibility Wind Dir Wind Speed Gust Speed Precip Events Conditions
12:55 AM 75.6 °F - 67.6 °F 76% 29.83 in 6.2 mi East 6.9 mph - N/A   Clear
1:55 AM 75.6 °F - 66.9 °F 74% 29.82 in 6.2 mi ESE 6.9 mph - N/A   Clear
2:55 AM 73.8 °F - 65.7 °F 76% 29.82 in 6.2 mi SE 8.1 mph - N/A   Clear
3:55 AM 73.4 °F - 64.8 °F 74% 29.82 in 6.2 mi SE 5.8 mph - N/A   Clear
4:55 AM 73.6 °F - 67.6 °F 82% 29.84 in 6.2 mi SE 9.2 mph - N/A   Clear
5:55 AM 73.8 °F - 68.7 °F 84% 29.86 in 6.2 mi SSE 9.2 mph - N/A   Clear
6:55 AM 76.8 °F - 69.3 °F 77% 29.88 in 6.2 mi SE 10.4 mph - N/A   Clear
7:55 AM 83.8 °F 84.7 °F 62.6 °F 49% 29.86 in 6.2 mi SE 19.6 mph - N/A   Clear
8:55 AM 90.7 °F - 52.9 °F 28% 29.87 in 6.2 mi SSE 21.9 mph - N/A   Clear
9:55 AM 95.0 °F - 48.6 °F 20% 29.87 in 6.2 mi South 19.6 mph - N/A   Partly Cloudy
10:53 AM 98.6 °F - 44.6 °F 16% 29.85 in - South 24.2 mph 31.1 mph N/A   Haze
10:55 AM 99.1 °F - 44.4 °F 15% 29.85 in - South 23.0 mph 31.1 mph N/A   Haze
11:12 AM 100.4 °F - 41.0 °F 13% 29.85 in 3.7 mi South 23.0 mph 31.1 mph N/A   Haze
11:55 AM 102.2 °F - 41.4 °F 12% 29.84 in 5.0 mi South 20.7 mph - N/A   Haze
12:55 PM 103.8 °F - 30.9 °F 8% 29.82 in 6.2 mi SSE 18.4 mph - N/A   Partly Cloudy
1:55 PM 103.8 °F - 32.4 °F 8% 29.81 in 6.2 mi SSE 13.8 mph 25.3 mph N/A   Partly Cloudy
2:55 PM 102.9 °F - 37.2 °F 10% 29.80 in 6.2 mi SSE 11.5 mph - N/A   Clear
3:55 PM 101.7 °F - 36.1 °F 10% 29.81 in 6.2 mi ESE 10.4 mph - N/A   Clear
4:55 PM 100.6 °F - 33.3 °F 10% 29.80 in 6.2 mi ESE 10.4 mph - N/A   Clear
5:55 PM 95.4 °F - 48.0 °F 20% 29.81 in 6.2 mi East 10.4 mph - N/A   Clear
6:55 PM 89.4 °F 88.4 °F 58.3 °F 35% 29.81 in 6.2 mi East 11.5 mph - N/A   Clear
7:55 PM 83.5 °F 86.4 °F 67.8 °F 59% 29.82 in 6.2 mi East 12.7 mph - N/A   Clear
8:55 PM 81.7 °F 83.3 °F 64.4 °F 56% 29.83 in 6.2 mi East 16.1 mph - N/A   Clear
9:55 PM 81.5 °F 82.8 °F 63.1 °F 54% 29.83 in 6.2 mi East 9.2 mph - N/A   Clear
10:55 PM 78.6 °F - 63.0 °F 59% 29.83 in 6.2 mi ESE 4.6 mph - N/A   Clear
11:55 PM 77.4 °F - 62.2 °F 59% 29.83 in 6.2 mi South 5.8 mph - N/A   Clear